[[{"header":{"parameterUnit":"m.s-1","parameterCategory":1,"la1":30.2991,"la2":30.254,"lo1":-89.0895,"lo2":-89.0444,"dy":0.0017,"dx":0.0017,"nx":28,"ny":28,"refTime":"2024-06-06T09:00:00:Z","depth":0,"parameterNumber":2,"parameterNumberName":"U-component_of_WINDS"},"data":[0,0,0,0,0,0,0,0,0,0,0,0,0,0,0,0,0,0,0,0,0,0,0,0,0,0,0,0,0,0,0,0,0,0,0,0,0,0,0,0,0,0,0,0,0,0,0,0,0,0,0,0,0,0,0,0,0,0,-0.1143,-0.1142,0,-0.1093,-0.1092,-0.1092,-0.1045,-0.1045,-0.1044,-0.1044,-0.0991,-0.099,-0.099,0,0,0,0,0,0,0,0,0,0,0,0,0,-0.1198,-0.1197,-0.1143,-0.1142,-0.1142,-0.1093,-0.1092,-0.1091,-0.1045,-0.1045,-0.1044,-0.1043,-0.0992,-0.0991,-0.0989,0,0,0,0,0,0,0,0,0,0,0,0,0,-0.1164,-0.1197,-0.1143,-0.1113,-0.111,-0.1093,-0.1092,-0.1091,-0.1046,-0.1045,-0.1044,-0.1043,-0.0992,-0.0991,-0.0989,-0.0998,0,0,-0.0985,-0.0985,0,0,0,0,0,0,0,0,-0.1166,-0.1162,-0.1118,-0.1115,-0.1111,-0.1074,-0.1092,-0.106,-0.1046,-0.107,-0.1044,-0.1043,-0.102,-0.1016,-0.1008,-0.0996,-0.0994,-0.0985,-0.0984,-0.0984,-0.0984,0,0,0,0,0,0,0,-0.1168,-0.1164,-0.1123,-0.1117,-0.1113,-0.1102,-0.1096,-0.1086,-0.105,-0.1068,-0.1064,-0.1059,-0.1018,-0.101,-0.1007,-0.0993,-0.0985,-0.0984,-0.0983,-0.0983,-0.0986,-0.0987,0,0,0,0,0,0,-0.1175,-0.1166,-0.1125,-0.1122,-0.1137,-0.1101,-0.1095,-0.1087,-0.105,-0.1044,-0.106,-0.1057,-0.1012,-0.1008,-0.1005,-0.1013,-0.0984,-0.0983,-0.0982,-0.0985,-0.0986,-0.0987,0,0,0,0,0,0,-0.1177,-0.1172,-0.1127,-0.1143,-0.1136,-0.1101,-0.1093,-0.1087,-0.1079,-0.1044,-0.1037,-0.1058,-0.1012,-0.1007,-0.1,-0.1011,-0.0982,-0.0981,-0.0984,-0.0985,-0.0986,-0.103,0,0,0,0,0,0,-0.1178,-0.1173,-0.1176,-0.1143,-0.1135,-0.1124,-0.1094,-0.1086,-0.1077,-0.1073,-0.1041,-0.1035,-0.101,-0.1003,-0.0999,-0.1009,-0.098,-0.0983,-0.0984,-0.0986,-0.1028,-0.1033,-0.1037,0,0,0,0,0,-0.1181,-0.119,-0.1176,-0.1172,-0.1139,-0.1124,-0.112,-0.1092,-0.1078,-0.1081,-0.1058,-0.1036,-0.101,-0.1002,-0.0998,-0.1007,-0.0982,-0.0984,-0.0986,-0.1026,-0.1032,-0.1037,0,0,0,0,0,0,-0.1225,-0.1185,-0.117,-0.1169,-0.115,-0.1116,-0.1119,-0.1099,-0.1084,-0.1081,-0.1046,-0.104,-0.1038,-0.1021,-0.1014,-0.1014,-0.0993,-0.0994,-0.1025,-0.103,-0.1035,-0.1039,-0.0979,0,0,0,0,0,-0.1234,-0.1226,-0.1192,-0.1194,-0.1186,-0.1154,-0.1147,-0.1127,-0.1106,-0.1098,-0.1075,-0.1056,-0.1044,-0.1036,-0.1023,-0.1025,-0.1018,-0.1029,-0.1034,-0.1038,-0.104,-0.1041,-0.1045,-0.0993,-0.0993,-0.0993,0,0,-0.1254,-0.1231,-0.1228,-0.1203,-0.1186,-0.1178,-0.1148,-0.1141,-0.1135,-0.1097,-0.109,-0.1073,-0.1049,-0.1047,-0.1045,-0.1034,-0.1053,-0.1041,-0.1044,-0.1043,-0.1043,-0.1048,-0.1052,-0.0994,-0.0994,-0.0994,0,0,-0.1286,-0.1268,-0.1268,-0.1253,-0.1228,-0.1207,-0.1207,-0.1176,-0.1164,-0.1156,-0.1128,-0.112,-0.1099,-0.1083,-0.1073,-0.11,-0.1078,-0.1096,-0.1121,-0.1122,-0.1126,-0.113,-0.114,-0.1144,-0.1098,-0.1098,-0.1098,0,-0.1314,-0.1301,-0.1271,-0.1266,-0.1256,-0.1222,-0.1222,-0.1208,-0.118,-0.1174,-0.1161,-0.1135,-0.1116,-0.1111,-0.1118,-0.111,-0.1109,-0.11,-0.1128,-0.1132,-0.1134,-0.1144,-0.1147,-0.11,-0.11,-0.11,-0.1099,0,-0.1336,-0.1328,-0.1331,-0.1306,-0.1296,-0.1294,-0.1263,-0.1257,-0.1238,-0.1218,-0.1211,-0.1188,-0.117,-0.1167,-0.1148,-0.1159,-0.1153,-0.1135,-0.1113,-0.1142,-0.115,-0.1154,-0.1103,-0.1103,-0.1102,-0.1101,0,0,-0.1395,-0.1353,-0.1355,-0.1343,-0.1314,-0.1307,-0.1303,-0.1285,-0.1281,-0.1262,-0.1259,-0.1242,-0.1226,-0.1213,-0.1193,-0.1194,-0.1217,-0.1175,-0.1174,-0.1185,-0.1228,-0.1243,-0.1247,-0.1203,-0.1203,-0.1204,-0.1231,0,-0.1422,-0.1414,-0.1387,-0.1386,-0.1379,-0.1346,-0.1343,-0.1325,-0.1306,-0.1297,-0.1276,-0.1265,-0.1244,-0.1237,-0.1236,-0.1214,-0.1226,-0.1212,-0.1199,-0.1199,-0.1207,-0.1251,-0.1266,-0.1292,-0.1234,-0.1234,-0.1234,0,-0.1453,-0.1438,-0.1437,-0.1408,-0.1404,-0.1402,-0.1384,-0.1375,-0.1353,-0.134,-0.1327,-0.1304,-0.1298,-0.1278,-0.1269,-0.1261,-0.1254,-0.1242,-0.1243,-0.1241,-0.1219,-0.1251,-0.13,-0.1304,-0.1239,-0.1239,-0.1238,0,-0.1497,-0.1476,-0.1473,-0.1463,-0.143,-0.1429,-0.1415,-0.1392,-0.1384,-0.1368,-0.1362,-0.1346,-0.1337,-0.1325,-0.1298,-0.1285,-0.1293,-0.127,-0.1282,-0.1283,-0.1285,-0.1285,-0.1334,-0.128,-0.128,-0.128,-0.128,0,-0.1531,-0.1531,-0.1492,-0.149,-0.149,-0.1459,-0.146,-0.1443,-0.1423,-0.1417,-0.1388,-0.1383,-0.1348,-0.1339,-0.1318,-0.1315,-0.1311,-0.13,-0.1294,-0.1303,-0.1304,-0.1298,-0.1296,-0.1281,-0.128,-0.128,-0.128,0,-0.1579,-0.1553,-0.1547,-0.1516,-0.1508,-0.151,-0.1483,-0.148,-0.146,-0.1453,-0.1449,-0.1418,-0.1406,-0.1378,-0.1359,-0.1344,-0.1347,-0.1336,-0.1354,-0.1351,-0.1365,-0.1364,-0.1412,-0.1417,-0.1359,-0.1359,-0.136,0,-0.1603,-0.1603,-0.1572,-0.1566,-0.1553,-0.1544,-0.1536,-0.1505,-0.1497,-0.1473,-0.1473,-0.1459,-0.1446,-0.1429,-0.1404,-0.1389,-0.1378,-0.1396,-0.1376,-0.1385,-0.1379,-0.138,-0.138,-0.1401,-0.1401,-0.1402,-0.1403,0,-0.1648,-0.1635,-0.1624,-0.1608,-0.1598,-0.1584,-0.1569,-0.1566,-0.1531,-0.1524,-0.1512,-0.1502,-0.1482,-0.1469,-0.145,-0.1435,-0.1414,-0.1409,-0.1411,-0.142,-0.1431,-0.1426,-0.1367,-0.1408,-0.1408,-0.1407,-0.1407,-0.1407,-0.1685,-0.1684,-0.1662,-0.1651,-0.1636,-0.1622,-0.1618,-0.1598,-0.1587,-0.1569,-0.1552,-0.1541,-0.152,-0.1493,-0.148,-0.1471,-0.146,-0.1463,-0.1463,-0.1465,-0.1469,-0.1432,-0.1467,-0.1467,-0.1467,-0.1467,-0.1467,0,-0.173,-0.1714,-0.1704,-0.1683,-0.1674,-0.1654,-0.1636,-0.163,-0.1621,-0.1603,-0.1592,-0.1578,-0.1565,-0.1539,-0.1524,-0.1522,-0.1512,-0.1519,-0.1519,-0.1516,-0.1479,-0.1479,-0.1528,-0.1528,-0.1528,-0.1528,-0.1528,-0.1528,-0.1752,-0.1749,-0.1733,-0.1723,-0.1707,-0.1697,-0.1688,-0.1675,-0.1661,-0.1647,-0.1636,-0.162,-0.1599,-0.1582,-0.1569,-0.1562,-0.1558,-0.1569,-0.1559,-0.1525,-0.1519,-0.1513,-0.1513,-0.1568,-0.1568,-0.1596,-0.1596,-0.1597]},{"header":{"parameterUnit":"m.s-1","parameterCategory":1,"la1":30.2991,"la2":30.254,"lo1":-89.0895,"lo2":-89.0444,"dy":0.0017,"dx":0.0017,"nx":28,"ny":28,"refTime":"2024-06-06T09:00:00:Z","depth":0,"parameterNumber":3,"parameterNumberName":"V-component_of_WINDS"},"data":[0,0,0,0,0,0,0,0,0,0,0,0,0,0,0,0,0,0,0,0,0,0,0,0,0,0,0,0,0,0,0,0,0,0,0,0,0,0,0,0,0,0,0,0,0,0,0,0,0,0,0,0,0,0,0,0,0,0,1.5569,1.557,0,1.5614,1.5614,1.5615,1.5633,1.5633,1.5633,1.5633,1.5675,1.5677,1.5678,0,0,0,0,0,0,0,0,0,0,0,0,0,1.5496,1.5497,1.5569,1.557,1.557,1.5614,1.5614,1.5615,1.5633,1.5633,1.5633,1.5633,1.5675,1.5676,1.5678,0,0,0,0,0,0,0,0,0,0,0,0,0,1.5533,1.5497,1.5569,1.5585,1.5587,1.5614,1.5614,1.5615,1.5633,1.5633,1.5633,1.5633,1.5674,1.5676,1.5678,1.5691,0,0,1.5683,1.5684,0,0,0,0,0,0,0,0,1.5531,1.5535,1.5582,1.5584,1.5586,1.5618,1.5604,1.5641,1.5634,1.5616,1.5633,1.5633,1.5656,1.5659,1.5668,1.5693,1.5695,1.5684,1.5685,1.5686,1.5686,0,0,0,0,0,0,0,1.5528,1.5533,1.5587,1.5583,1.5585,1.5588,1.5593,1.5611,1.5636,1.5617,1.5619,1.5624,1.5657,1.5666,1.5669,1.5696,1.5684,1.5685,1.5686,1.5687,1.5734,1.5734,0,0,0,0,0,0,1.5523,1.5531,1.5585,1.5588,1.5557,1.559,1.5595,1.5608,1.5636,1.564,1.5624,1.5625,1.5663,1.5667,1.5671,1.5688,1.5685,1.5687,1.5688,1.5734,1.5734,1.5734,0,0,0,0,0,0,1.5522,1.5528,1.5583,1.556,1.5567,1.5591,1.5605,1.5609,1.5618,1.5641,1.5645,1.5629,1.5663,1.5668,1.5686,1.569,1.5688,1.569,1.5733,1.5734,1.5734,1.5723,0,0,0,0,0,0,1.552,1.5527,1.5534,1.556,1.5569,1.56,1.5605,1.561,1.5621,1.5623,1.5647,1.565,1.5664,1.5683,1.5688,1.5692,1.5691,1.5733,1.5734,1.5734,1.5723,1.5723,1.5723,0,0,0,0,0,1.5517,1.5528,1.5534,1.554,1.5577,1.56,1.5604,1.562,1.5622,1.5627,1.5642,1.565,1.5689,1.5685,1.569,1.5695,1.5733,1.5733,1.5734,1.5723,1.5723,1.5723,0,0,0,0,0,0,1.55,1.5532,1.5539,1.5559,1.5577,1.5603,1.5611,1.5619,1.5636,1.5637,1.5654,1.5659,1.5676,1.5687,1.5683,1.5709,1.5711,1.5713,1.5702,1.5701,1.5701,1.5698,1.5693,0,0,0,0,0,1.5499,1.5516,1.5542,1.5558,1.5566,1.5587,1.5597,1.5608,1.5627,1.5634,1.565,1.5666,1.5682,1.5692,1.5708,1.5725,1.573,1.5731,1.573,1.573,1.5731,1.574,1.5741,1.5735,1.5735,1.5735,0,0,1.5497,1.5516,1.5526,1.5555,1.557,1.5586,1.5593,1.561,1.5621,1.5636,1.5655,1.5667,1.5686,1.5703,1.5712,1.5713,1.5734,1.573,1.573,1.5731,1.5741,1.5741,1.5741,1.5736,1.5736,1.5735,0,0,1.5501,1.5517,1.5532,1.5547,1.557,1.5584,1.5587,1.5612,1.5621,1.564,1.5651,1.5664,1.5691,1.5705,1.5715,1.5724,1.5731,1.5728,1.5727,1.5735,1.5736,1.5736,1.5739,1.574,1.5729,1.5729,1.5729,0,1.5495,1.5521,1.5538,1.5555,1.5567,1.5581,1.5596,1.5609,1.5635,1.5642,1.5644,1.5678,1.5693,1.5713,1.5715,1.5723,1.5727,1.5726,1.5734,1.5735,1.5736,1.5739,1.574,1.5728,1.5728,1.5729,1.5729,0,1.5512,1.5529,1.5538,1.5565,1.5578,1.5593,1.5611,1.5622,1.5631,1.5644,1.5663,1.568,1.57,1.5705,1.5714,1.5727,1.5727,1.5731,1.5734,1.5736,1.5738,1.574,1.5728,1.5728,1.5728,1.5728,0,0,1.5507,1.5543,1.5546,1.5558,1.5584,1.5597,1.5612,1.5633,1.5641,1.5658,1.5671,1.5693,1.5698,1.5709,1.5719,1.5727,1.5732,1.573,1.5731,1.573,1.5747,1.5744,1.5745,1.5737,1.5737,1.5737,1.5745,0,1.5515,1.5544,1.556,1.5582,1.5598,1.5612,1.5625,1.5642,1.5654,1.5668,1.5681,1.5697,1.5701,1.5708,1.5716,1.573,1.5736,1.5729,1.5748,1.5748,1.5743,1.5746,1.5743,1.575,1.5746,1.5746,1.5747,0,1.5528,1.5546,1.557,1.5594,1.5601,1.5613,1.5633,1.5646,1.5665,1.5673,1.5686,1.5696,1.5711,1.5712,1.5733,1.5728,1.5736,1.5744,1.5744,1.5747,1.5748,1.5749,1.5752,1.5753,1.5749,1.5748,1.5748,0,1.5522,1.5552,1.5571,1.5581,1.5609,1.5617,1.5629,1.5647,1.5658,1.5675,1.5682,1.5699,1.5709,1.5722,1.5736,1.5735,1.5755,1.5757,1.5761,1.5761,1.5765,1.5765,1.577,1.577,1.577,1.577,1.577,0,1.5529,1.5543,1.5569,1.558,1.5596,1.5613,1.5628,1.5641,1.5657,1.567,1.5682,1.5694,1.5712,1.5725,1.5736,1.5751,1.5755,1.5761,1.5764,1.5761,1.576,1.5767,1.5766,1.577,1.577,1.577,1.577,0,1.5526,1.5543,1.5564,1.559,1.5596,1.5607,1.5628,1.5638,1.5651,1.5667,1.5672,1.5691,1.5708,1.5723,1.5745,1.5752,1.5767,1.577,1.5761,1.5763,1.5766,1.5766,1.5776,1.5778,1.5777,1.5777,1.5777,0,1.5529,1.5541,1.5567,1.5577,1.5589,1.5605,1.5617,1.5634,1.5645,1.5667,1.5675,1.5692,1.5707,1.5733,1.5748,1.5764,1.5768,1.5771,1.5771,1.5767,1.5768,1.5768,1.5769,1.577,1.577,1.577,1.577,0,1.5533,1.5542,1.5559,1.5578,1.5592,1.5608,1.5624,1.5632,1.5651,1.5663,1.5681,1.5693,1.5715,1.5732,1.575,1.5761,1.5768,1.577,1.5772,1.5769,1.5763,1.5766,1.5761,1.577,1.577,1.577,1.577,1.577,1.5534,1.5544,1.5565,1.5583,1.5597,1.5612,1.5624,1.5638,1.5653,1.5674,1.5682,1.57,1.5717,1.5742,1.5753,1.5766,1.5768,1.577,1.5771,1.5772,1.5771,1.5761,1.5769,1.5769,1.5769,1.5769,1.5769,0,1.5538,1.5552,1.5569,1.5592,1.5606,1.5613,1.5631,1.5642,1.5658,1.5674,1.5689,1.5709,1.5725,1.5741,1.5758,1.5766,1.577,1.577,1.5769,1.5771,1.5768,1.5765,1.5766,1.5766,1.5766,1.5766,1.5766,1.5766,1.5543,1.5561,1.5572,1.5597,1.561,1.5629,1.5638,1.5652,1.5665,1.5687,1.5701,1.5712,1.5728,1.5746,1.5761,1.5765,1.5771,1.5769,1.5775,1.5772,1.5772,1.5772,1.5769,1.5771,1.5771,1.5777,1.5777,1.5777]}]]